| time (UTC) | temp F | wind direction | speed MPH | gust MPH | rain 1hr in | rain 24hr in | rain mn in | humidity % | barometer mb |
| 20260509160426 | 87 | 100 | 13.0 | 23.0 | 0.00 | 0.00 | 0.00 | 63 | 1021.0 |
| 20260509155921 | 87 | 115 | 10.0 | 17.0 | 0.00 | 0.00 | 0.00 | 65 | 1020.8 |
| 20260509155418 | 87 | 147 | 13.0 | 24.0 | 0.00 | 0.00 | 0.00 | 62 | 1021.1 |
| 20260509154914 | 87 | 103 | 11.0 | 19.0 | 0.00 | 0.00 | 0.00 | 62 | 1021.1 |
| 20260509154411 | 86 | 132 | 14.0 | 21.0 | 0.00 | 0.00 | 0.00 | 64 | 1021.1 |
| 20260509153907 | 86 | 218 | 14.0 | 19.0 | 0.00 | 0.00 | 0.00 | 63 | 1021.2 |
| 20260509153405 | 87 | 150 | 12.0 | 17.0 | 0.00 | 0.00 | 0.00 | 63 | 1021.0 |
| 20260509152902 | 86 | 107 | 9.0 | 19.0 | 0.00 | 0.00 | 0.00 | 65 | 1021.1 |
| 20260509152357 | 86 | 165 | 12.0 | 17.0 | 0.00 | 0.00 | 0.00 | 65 | 1021.3 |
| 20260509151855 | 86 | 138 | 12.0 | 18.0 | 0.00 | 0.00 | 0.00 | 64 | 1021.2 |
| 20260509151350 | 87 | 102 | 12.0 | 22.0 | 0.00 | 0.00 | 0.00 | 63 | 1021.2 |
| 20260509150849 | 86 | 111 | 17.0 | 21.0 | 0.00 | 0.00 | 0.00 | 64 | 1021.1 |
| 20260509150347 | 87 | 128 | 13.0 | 18.0 | 0.00 | 0.00 | 0.00 | 64 | 1021.4 |
| 20260509145844 | 86 | 92 | 11.0 | 22.0 | 0.00 | 0.00 | 0.00 | 64 | 1021.3 |
| 20260509145344 | 87 | 129 | 8.0 | 21.0 | 0.00 | 0.00 | 0.00 | 63 | 1021.6 |
| 20260509144841 | 87 | 127 | 11.0 | 17.0 | 0.00 | 0.00 | 0.00 | 62 | 1021.4 |
| 20260509144338 | 87 | 177 | 8.0 | 18.0 | 0.00 | 0.00 | 0.00 | 64 | 1021.5 |
| 20260509143835 | 86 | 113 | 10.0 | 16.0 | 0.00 | 0.00 | 0.00 | 64 | 1021.3 |
| 20260509143332 | 87 | 90 | 11.0 | 22.0 | 0.00 | 0.00 | 0.00 | 60 | 1021.2 |
| 20260509142828 | 86 | 143 | 12.0 | 19.0 | 0.00 | 0.00 | 0.00 | 62 | 1021.4 |
| 20260509142324 | 87 | 182 | 11.0 | 19.0 | 0.00 | 0.00 | 0.00 | 61 | 1021.3 |
| 20260509141820 | 87 | 111 | 7.0 | 16.0 | 0.00 | 0.00 | 0.00 | 61 | 1021.3 |
| 20260509141318 | 86 | 161 | 8.0 | 13.0 | 0.00 | 0.00 | 0.00 | 61 | 1021.3 |
| 20260509140814 | 86 | 106 | 10.0 | 16.0 | 0.00 | 0.00 | 0.00 | 62 | 1021.4 |
| 20260509140311 | 86 | 73 | 17.0 | 21.0 | 0.00 | 0.00 | 0.00 | 61 | 1021.2 |
| 20260509135809 | 86 | 56 | 15.0 | 21.0 | 0.00 | 0.00 | 0.00 | 61 | 1021.2 |
| 20260509135306 | 86 | 140 | 10.0 | 22.0 | 0.00 | 0.00 | 0.00 | 61 | 1021.0 |
| 20260509134803 | 86 | 99 | 14.0 | 17.0 | 0.00 | 0.00 | 0.00 | 60 | 1021.2 |
| 20260509134301 | 86 | 96 | 13.0 | 17.0 | 0.00 | 0.00 | 0.00 | 60 | 1021.2 |
| 20260509133757 | 86 | 201 | 8.0 | 18.0 | 0.00 | 0.00 | 0.00 | 59 | 1021.1 |
| 20260509133254 | 86 | 71 | 7.0 | 15.0 | 0.00 | 0.00 | 0.00 | 59 | 1021.2 |
| 20260509132753 | 86 | 67 | 13.0 | 16.0 | 0.00 | 0.00 | 0.00 | 58 | 1021.2 |
| 20260509132251 | 86 | 149 | 11.0 | 18.0 | 0.00 | 0.00 | 0.00 | 58 | 1021.2 |
| 20260509131747 | 85 | 53 | 10.0 | 17.0 | 0.00 | 0.00 | 0.00 | 58 | 1021.1 |
| 20260509131244 | 86 | 145 | 12.0 | 16.0 | 0.00 | 0.00 | 0.00 | 58 | 1021.0 |
| 20260509130740 | 85 | 105 | 14.0 | 18.0 | 0.00 | 0.00 | 0.00 | 58 | 1021.0 |
| 20260509130236 | 85 | 89 | 8.0 | 18.0 | 0.00 | 0.00 | 0.00 | 61 | 1020.9 |
| 20260509125733 | 84 | 183 | 9.0 | 15.0 | 0.00 | 0.00 | 0.00 | 62 | 1021.0 |
| 20260509125230 | 83 | 68 | 11.0 | 14.0 | 0.00 | 0.00 | 0.00 | 62 | 1021.0 |
| 20260509124726 | 83 | 144 | 11.0 | 16.0 | 0.00 | 0.00 | 0.00 | 63 | 1020.9 |
| 20260509124223 | 83 | 91 | 14.0 | 19.0 | 0.00 | 0.00 | 0.00 | 62 | 1020.9 |
| 20260509123721 | 83 | 109 | 9.0 | 14.0 | 0.00 | 0.00 | 0.00 | 63 | 1020.9 |
| 20260509123218 | 83 | 67 | 6.0 | 18.0 | 0.00 | 0.00 | 0.00 | 63 | 1020.9 |
| 20260509122713 | 82 | 82 | 12.0 | 16.0 | 0.00 | 0.00 | 0.00 | 63 | 1020.7 |
| 20260509122211 | 82 | 104 | 10.0 | 11.0 | 0.00 | 0.00 | 0.00 | 65 | 1020.8 |
| 20260509121707 | 81 | 143 | 13.0 | 18.0 | 0.00 | 0.00 | 0.00 | 66 | 1020.7 |
| 20260509121205 | 82 | 81 | 14.0 | 19.0 | 0.00 | 0.00 | 0.00 | 64 | 1020.6 |
| 20260509120703 | 82 | 129 | 13.0 | 16.0 | 0.00 | 0.00 | 0.00 | 66 | 1020.4 |
| 20260509120201 | 81 | 108 | 8.0 | 13.0 | 0.00 | 0.00 | 0.00 | 67 | 1020.4 |
| 20260509115658 | 80 | 88 | 6.0 | 14.0 | 0.00 | 0.00 | 0.00 | 68 | 1020.4 |
| 20260509115155 | 80 | 114 | 6.0 | 10.0 | 0.00 | 0.00 | 0.00 | 69 | 1020.3 |
| 20260509114653 | 80 | 62 | 11.0 | 16.0 | 0.00 | 0.00 | 0.00 | 68 | 1020.4 |
| 20260509114152 | 80 | 65 | 7.0 | 11.0 | 0.00 | 0.00 | 0.00 | 69 | 1020.3 |
| 20260509113650 | 79 | 125 | 8.0 | 11.0 | 0.00 | 0.00 | 0.00 | 69 | 1020.4 |
| 20260509113147 | 79 | 65 | 11.0 | 16.0 | 0.00 | 0.00 | 0.00 | 69 | 1020.3 |
| 20260509112644 | 78 | 69 | 10.0 | 18.0 | 0.00 | 0.00 | 0.00 | 70 | 1020.4 |
| 20260509112141 | 78 | 81 | 12.0 | 18.0 | 0.00 | 0.00 | 0.00 | 70 | 1020.2 |
| 20260509111638 | 78 | 72 | 11.0 | 15.0 | 0.00 | 0.00 | 0.00 | 70 | 1020.2 |
| 20260509111134 | 78 | 104 | 13.0 | 18.0 | 0.00 | 0.00 | 0.00 | 71 | 1020.2 |
| 20260509110632 | 78 | 82 | 12.0 | 16.0 | 0.00 | 0.00 | 0.00 | 71 | 1020.2 |
| 20260509110129 | 77 | 92 | 10.0 | 16.0 | 0.00 | 0.00 | 0.00 | 72 | 1020.1 |
| 20260509105627 | 77 | 68 | 13.0 | 19.0 | 0.00 | 0.00 | 0.00 | 72 | 1020.2 |
| 20260509105124 | 77 | 93 | 7.0 | 15.0 | 0.00 | 0.00 | 0.00 | 73 | 1020.3 |
| 20260509104621 | 77 | 71 | 11.0 | 14.0 | 0.00 | 0.00 | 0.00 | 73 | 1020.0 |
| 20260509104117 | 76 | 93 | 10.0 | 14.0 | 0.00 | 0.00 | 0.00 | 74 | 1020.1 |
| 20260509103616 | 76 | 91 | 13.0 | 16.0 | 0.00 | 0.00 | 0.00 | 74 | 1020.1 |
| 20260509103113 | 76 | 88 | 9.0 | 13.0 | 0.00 | 0.00 | 0.00 | 74 | 1020.1 |
| 20260509102610 | 76 | 79 | 12.0 | 15.0 | 0.00 | 0.00 | 0.00 | 75 | 1019.8 |
| 20260509102107 | 75 | 85 | 8.0 | 9.0 | 0.00 | 0.00 | 0.00 | 75 | 1019.8 |
| 20260509101603 | 75 | 62 | 5.0 | 14.0 | 0.00 | 0.00 | 0.00 | 75 | 1019.8 |
| 20260509101100 | 75 | 91 | 6.0 | 13.0 | 0.00 | 0.00 | 0.00 | 75 | 1019.8 |
| 20260509100557 | 75 | 87 | 12.0 | 16.0 | 0.00 | 0.00 | 0.00 | 76 | 1019.6 |
| 20260509100055 | 75 | 88 | 9.0 | 14.0 | 0.00 | 0.00 | 0.00 | 75 | 1019.4 |
| 20260509095551 | 75 | 82 | 11.0 | 18.0 | 0.00 | 0.00 | 0.00 | 75 | 1019.5 |
| 20260509095049 | 75 | 60 | 7.0 | 10.0 | 0.00 | 0.00 | 0.00 | 75 | 1019.5 |
| 20260509094545 | 75 | 103 | 8.0 | 15.0 | 0.00 | 0.00 | 0.00 | 75 | 1019.4 |
| 20260509094043 | 75 | 75 | 10.0 | 13.0 | 0.00 | 0.00 | 0.00 | 75 | 1019.3 |
| 20260509093541 | 75 | 145 | 8.0 | 13.0 | 0.00 | 0.00 | 0.00 | 75 | 1019.2 |
| 20260509093038 | 75 | 85 | 7.0 | 11.0 | 0.00 | 0.00 | 0.00 | 75 | 1019.3 |
| 20260509092535 | 75 | 171 | 6.0 | 14.0 | 0.00 | 0.00 | 0.00 | 75 | 1019.2 |
| 20260509092034 | 75 | 90 | 7.0 | 11.0 | 0.00 | 0.00 | 0.00 | 75 | 1019.2 |
| 20260509091531 | 75 | 111 | 7.0 | 11.0 | 0.00 | 0.00 | 0.00 | 74 | 1019.3 |
| 20260509091028 | 75 | 96 | 11.0 | 15.0 | 0.00 | 0.00 | 0.00 | 75 | 1019.1 |
| 20260509090525 | 75 | 67 | 7.0 | 11.0 | 0.00 | 0.00 | 0.00 | 74 | 1019.2 |
| 20260509090023 | 75 | 267 | 4.0 | 15.0 | 0.00 | 0.00 | 0.00 | 74 | 1019.0 |
| 20260509085519 | 75 | 81 | 7.0 | 9.0 | 0.00 | 0.00 | 0.00 | 73 | 1019.1 |
| 20260509085015 | 75 | 83 | 10.0 | 13.0 | 0.00 | 0.00 | 0.00 | 73 | 1018.8 |
| 20260509084513 | 75 | 71 | 7.0 | 11.0 | 0.00 | 0.00 | 0.00 | 73 | 1018.9 |
| 20260509084010 | 75 | 82 | 8.0 | 13.0 | 0.00 | 0.00 | 0.00 | 73 | 1018.9 |
| 20260509083507 | 75 | 65 | 9.0 | 13.0 | 0.00 | 0.00 | 0.00 | 73 | 1019.2 |
| 20260509083003 | 75 | 76 | 8.0 | 13.0 | 0.00 | 0.00 | 0.00 | 73 | 1019.0 |
| 20260509082501 | 75 | 70 | 5.0 | 16.0 | 0.00 | 0.00 | 0.00 | 73 | 1019.0 |
| 20260509081958 | 75 | 74 | 9.0 | 14.0 | 0.00 | 0.00 | 0.00 | 73 | 1019.2 |
| 20260509081455 | 75 | 138 | 10.0 | 16.0 | 0.00 | 0.00 | 0.00 | 73 | 1019.0 |
| 20260509080952 | 75 | 94 | 7.0 | 16.0 | 0.00 | 0.00 | 0.00 | 73 | 1019.1 |
| 20260509080450 | 75 | 83 | 4.0 | 15.0 | 0.00 | 0.00 | 0.00 | 73 | 1018.9 |
| 20260509075948 | 75 | 77 | 10.0 | 14.0 | 0.00 | 0.00 | 0.00 | 74 | 1019.0 |
| 20260509075445 | 75 | 77 | 10.0 | 13.0 | 0.00 | 0.00 | 0.00 | 75 | 1019.1 |
| 20260509074943 | 75 | 89 | 6.0 | 9.0 | 0.00 | 0.00 | 0.00 | 75 | 1018.8 |
| 20260509074440 | 75 | 80 | 11.0 | 14.0 | 0.00 | 0.00 | 0.00 | 75 | 1019.0 |
| 20260509073936 | 75 | 85 | 6.0 | 13.0 | 0.00 | 0.00 | 0.00 | 75 | 1019.0 |
| 20260509073433 | 75 | 73 | 11.0 | 13.0 | 0.00 | 0.00 | 0.00 | 75 | 1018.7 |
| 20260509072929 | 75 | 85 | 7.0 | 16.0 | 0.00 | 0.00 | 0.00 | 76 | 1018.9 |
| 20260509072426 | 76 | 83 | 6.0 | 13.0 | 0.00 | 0.00 | 0.00 | 76 | 1018.9 |
| 20260509071922 | 76 | 77 | 9.0 | 14.0 | 0.00 | 0.00 | 0.00 | 76 | 1018.8 |
| 20260509071419 | 76 | 74 | 12.0 | 14.0 | 0.00 | 0.00 | 0.00 | 76 | 1018.8 |
| 20260509070917 | 76 | 73 | 9.0 | 15.0 | 0.00 | 0.00 | 0.00 | 76 | 1018.8 |
| 20260509070414 | 76 | 73 | 4.0 | 14.0 | 0.00 | 0.00 | 0.00 | 77 | 1018.9 |
| 20260509065909 | 76 | 93 | 10.0 | 11.0 | 0.00 | 0.00 | 0.00 | 77 | 1018.9 |
| 20260509065406 | 76 | 69 | 5.0 | 11.0 | 0.00 | 0.00 | 0.00 | 77 | 1019.1 |
| 20260509064902 | 76 | 92 | 10.0 | 14.0 | 0.00 | 0.00 | 0.00 | 77 | 1019.0 |
| 20260509064359 | 76 | 84 | 7.0 | 11.0 | 0.00 | 0.00 | 0.00 | 77 | 1019.0 |
| 20260509063857 | 76 | 123 | 9.0 | 11.0 | 0.00 | 0.00 | 0.00 | 77 | 1019.0 |
| 20260509063353 | 76 | 91 | 3.0 | 14.0 | 0.00 | 0.00 | 0.00 | 76 | 1019.0 |
| 20260509062850 | 76 | 54 | 8.0 | 11.0 | 0.00 | 0.00 | 0.00 | 76 | 1019.2 |
| 20260509062347 | 76 | 73 | 7.0 | 11.0 | 0.00 | 0.00 | 0.00 | 76 | 1019.0 |
| 20260509061844 | 76 | 105 | 9.0 | 11.0 | 0.00 | 0.00 | 0.00 | 76 | 1019.2 |
| 20260509061343 | 76 | 86 | 6.0 | 10.0 | 0.00 | 0.00 | 0.00 | 76 | 1019.1 |
| 20260509060839 | 77 | 84 | 5.0 | 10.0 | 0.00 | 0.00 | 0.00 | 75 | 1019.1 |
| 20260509060336 | 77 | 91 | 7.0 | 10.0 | 0.00 | 0.00 | 0.00 | 75 | 1019.4 |
| 20260509055831 | 76 | 97 | 8.0 | 15.0 | 0.00 | 0.00 | 0.00 | 75 | 1019.4 |
| 20260509055327 | 76 | 85 | 8.0 | 10.0 | 0.00 | 0.00 | 0.00 | 75 | 1019.5 |
| 20260509054824 | 77 | 49 | 5.0 | 8.0 | 0.00 | 0.00 | 0.00 | 75 | 1019.2 |
| 20260509054321 | 76 | 86 | 12.0 | 15.0 | 0.00 | 0.00 | 0.00 | 76 | 1019.4 |
| 20260509053819 | 76 | 67 | 5.0 | 10.0 | 0.00 | 0.00 | 0.00 | 77 | 1019.5 |
| 20260509053316 | 76 | 59 | 7.0 | 9.0 | 0.00 | 0.00 | 0.00 | 77 | 1019.5 |
| 20260509052814 | 76 | 84 | 5.0 | 8.0 | 0.00 | 0.00 | 0.00 | 77 | 1019.4 |
| 20260509052311 | 77 | 101 | 5.0 | 8.0 | 0.00 | 0.00 | 0.00 | 76 | 1019.5 |
| 20260509051809 | 77 | 96 | 8.0 | 10.0 | 0.00 | 0.00 | 0.00 | 76 | 1019.6 |
| 20260509051307 | 77 | 79 | 6.0 | 9.0 | 0.00 | 0.00 | 0.00 | 76 | 1019.9 |
| 20260509050803 | 77 | 192 | 6.0 | 10.0 | 0.00 | 0.00 | 0.00 | 76 | 1019.8 |
| 20260509050300 | 77 | 81 | 6.0 | 9.0 | 0.00 | 0.00 | 0.00 | 77 | 1020.0 |
| 20260509045757 | 77 | 62 | 6.0 | 11.0 | 0.00 | 0.00 | 0.00 | 77 | 1020.0 |
| 20260509045254 | 76 | 74 | 8.0 | 9.0 | 0.00 | 0.00 | 0.00 | 77 | 1020.1 |
| 20260509044751 | 76 | 83 | 8.0 | 9.0 | 0.00 | 0.00 | 0.00 | 78 | 1020.0 |
| 20260509044249 | 77 | 75 | 6.0 | 9.0 | 0.00 | 0.00 | 0.00 | 77 | 1020.1 |
| 20260509043745 | 77 | 62 | 4.0 | 8.0 | 0.00 | 0.00 | 0.00 | 77 | 1020.1 |
| 20260509043241 | 77 | 60 | 6.0 | 14.0 | 0.00 | 0.00 | 0.00 | 78 | 1020.2 |
| 20260509042737 | 77 | 63 | 8.0 | 11.0 | 0.00 | 0.00 | 0.00 | 78 | 1020.3 |
| 20260509042233 | 76 | 125 | 5.0 | 9.0 | 0.00 | 0.00 | 0.00 | 79 | 1020.4 |
| 20260509041730 | 76 | 73 | 8.0 | 10.0 | 0.00 | 0.00 | 0.00 | 80 | 1020.4 |
| 20260509041228 | 76 | 46 | 4.0 | 9.0 | 0.00 | 0.00 | 0.00 | 81 | 1020.5 |
| 20260509040726 | 76 | 40 | 5.0 | 8.0 | 0.00 | 0.00 | 0.00 | 81 | 1020.4 |
| 20260509040222 | 76 | 78 | 5.0 | 9.0 | 0.00 | 0.00 | 0.00 | 82 | 1020.5 |
| 20260509035719 | 76 | 42 | 7.0 | 10.0 | 0.00 | 0.00 | 0.00 | 82 | 1020.5 |
| 20260509035216 | 77 | 67 | 5.0 | 9.0 | 0.00 | 0.00 | 0.00 | 82 | 1020.5 |
| 20260509034713 | 77 | 65 | 4.0 | 9.0 | 0.00 | 0.00 | 0.00 | 82 | 1020.6 |
| 20260509034211 | 76 | 82 | 6.0 | 8.0 | 0.00 | 0.00 | 0.00 | 82 | 1020.5 |
| 20260509033708 | 76 | 75 | 4.0 | 9.0 | 0.00 | 0.00 | 0.00 | 81 | 1020.5 |
| 20260509033205 | 77 | 78 | 6.0 | 9.0 | 0.00 | 0.00 | 0.00 | 81 | 1020.5 |
| 20260509032702 | 77 | 70 | 4.0 | 10.0 | 0.00 | 0.00 | 0.00 | 81 | 1020.4 |
| 20260509032158 | 77 | 79 | 7.0 | 13.0 | 0.00 | 0.00 | 0.00 | 81 | 1020.5 |
| 20260509031656 | 77 | 38 | 5.0 | 10.0 | 0.00 | 0.00 | 0.00 | 82 | 1020.6 |
| 20260509031153 | 77 | 108 | 3.0 | 7.0 | 0.00 | 0.00 | 0.00 | 82 | 1020.4 |
| 20260509030652 | 77 | 75 | 4.0 | 7.0 | 0.00 | 0.00 | 0.00 | 83 | 1020.7 |
| 20260509030149 | 77 | 96 | 4.0 | 8.0 | 0.00 | 0.00 | 0.00 | 83 | 1020.4 |
| 20260509025645 | 77 | 71 | 3.0 | 6.0 | 0.00 | 0.00 | 0.00 | 83 | 1020.6 |
| 20260509025141 | 77 | 98 | 5.0 | 7.0 | 0.00 | 0.00 | 0.00 | 82 | 1020.6 |
| 20260509024636 | 77 | 127 | 6.0 | 8.0 | 0.00 | 0.00 | 0.00 | 82 | 1020.7 |
| 20260509024132 | 77 | 132 | 2.0 | 7.0 | 0.00 | 0.00 | 0.00 | 82 | 1020.6 |
| 20260509023630 | 77 | 115 | 4.0 | 6.0 | 0.00 | 0.00 | 0.00 | 81 | 1020.5 |
| 20260509023127 | 77 | 79 | 4.0 | 7.0 | 0.00 | 0.00 | 0.00 | 81 | 1020.7 |
| 20260509022623 | 77 | 118 | 4.0 | 7.0 | 0.00 | 0.00 | 0.00 | 80 | 1020.6 |
| 20260509022121 | 77 | 128 | 4.0 | 6.0 | 0.00 | 0.00 | 0.00 | 80 | 1020.7 |
| 20260509021618 | 77 | 85 | 3.0 | 8.0 | 0.00 | 0.00 | 0.00 | 80 | 1020.6 |
| 20260509021115 | 77 | 63 | 3.0 | 6.0 | 0.00 | 0.00 | 0.00 | 80 | 1020.6 |
| 20260509020613 | 77 | 107 | 5.0 | 7.0 | 0.00 | 0.00 | 0.00 | 80 | 1020.4 |
| 20260509020109 | 77 | 81 | 5.0 | 9.0 | 0.00 | 0.00 | 0.00 | 80 | 1020.3 |
| 20260509015609 | 77 | 86 | 5.0 | 7.0 | 0.00 | 0.00 | 0.00 | 80 | 1020.3 |
| 20260509015106 | 77 | 97 | 5.0 | 8.0 | 0.00 | 0.00 | 0.00 | 80 | 1020.5 |
| 20260509014602 | 77 | 86 | 6.0 | 9.0 | 0.00 | 0.00 | 0.00 | 80 | 1020.7 |
| 20260509014059 | 77 | 101 | 6.0 | 8.0 | 0.00 | 0.00 | 0.00 | 80 | 1020.4 |
| 20260509013555 | 77 | 72 | 6.0 | 9.0 | 0.00 | 0.00 | 0.00 | 80 | 1020.5 |
| 20260509013051 | 77 | 51 | 6.0 | 8.0 | 0.00 | 0.00 | 0.00 | 80 | 1020.3 |
| 20260509012548 | 77 | 73 | 6.0 | 8.0 | 0.00 | 0.00 | 0.00 | 80 | 1020.3 |
| 20260509012045 | 77 | 112 | 4.0 | 7.0 | 0.00 | 0.00 | 0.00 | 80 | 1020.2 |
| 20260509011543 | 77 | 80 | 7.0 | 9.0 | 0.00 | 0.00 | 0.00 | 80 | 1020.3 |
| 20260509011040 | 77 | 47 | 7.0 | 8.0 | 0.00 | 0.00 | 0.00 | 80 | 1020.4 |
| 20260509010537 | 77 | 76 | 4.0 | 8.0 | 0.00 | 0.00 | 0.00 | 80 | 1020.5 |
| 20260509010034 | 77 | 85 | 4.0 | 7.0 | 0.00 | 0.00 | 0.00 | 79 | 1020.3 |
| 20260509005532 | 77 | 71 | 4.0 | 8.0 | 0.00 | 0.00 | 0.00 | 79 | 1020.1 |
| 20260509005032 | 78 | 122 | 4.0 | 8.0 | 0.00 | 0.00 | 0.00 | 79 | 1020.2 |
| 20260509004529 | 78 | 73 | 3.0 | 6.0 | 0.00 | 0.00 | 0.00 | 79 | 1020.3 |
| 20260509004026 | 78 | 168 | 3.0 | 7.0 | 0.00 | 0.00 | 0.00 | 79 | 1020.0 |
| 20260509003525 | 77 | 75 | 4.0 | 6.0 | 0.00 | 0.00 | 0.00 | 79 | 1020.1 |
| 20260509003021 | 78 | 105 | 5.0 | 6.0 | 0.00 | 0.00 | 0.00 | 78 | 1020.2 |
| 20260509002519 | 78 | 92 | 3.0 | 4.0 | 0.00 | 0.00 | 0.00 | 78 | 1019.9 |
| 20260509002016 | 78 | 239 | 0.0 | 2.0 | 0.00 | 0.00 | 0.00 | 78 | 1020.0 |
| 20260509001513 | 78 | 249 | 1.0 | 7.0 | 0.00 | 0.00 | 0.00 | 78 | 1019.9 |
| 20260509001009 | 78 | 79 | 1.0 | 3.0 | 0.00 | 0.00 | 0.00 | 78 | 1019.8 |
| 20260509000508 | 78 | 202 | 3.0 | 7.0 | 0.00 | 0.00 | 0.00 | 78 | 1019.8 |
| 20260509000003 | 78 | 156 | 2.0 | 4.0 | 0.00 | 0.00 | 0.00 | 79 | 1019.7 |
| 20260508235501 | 78 | 61 | 4.0 | 6.0 | 0.00 | 0.00 | 0.00 | 78 | 1019.8 |
| 20260508234957 | 78 | 121 | 3.0 | 4.0 | 0.00 | 0.00 | 0.00 | 78 | 1019.5 |
| 20260508234454 | 78 | 163 | 3.0 | 6.0 | 0.00 | 0.00 | 0.00 | 78 | 1019.4 |
| 20260508233952 | 78 | 99 | 4.0 | 6.0 | 0.00 | 0.00 | 0.00 | 78 | 1019.6 |
| 20260508233451 | 78 | 120 | 3.0 | 3.0 | 0.00 | 0.00 | 0.00 | 77 | 1019.5 |
| 20260508232948 | 78 | 206 | 1.0 | 4.0 | 0.00 | 0.00 | 0.00 | 77 | 1019.8 |
| 20260508232445 | 79 | 62 | 2.0 | 3.0 | 0.00 | 0.00 | 0.00 | 77 | 1019.4 |
| 20260508231942 | 79 | 203 | 1.0 | 3.0 | 0.00 | 0.00 | 0.00 | 77 | 1019.5 |
| 20260508231439 | 79 | 87 | 2.0 | 3.0 | 0.00 | 0.00 | 0.00 | 77 | 1019.5 |
| 20260508230936 | 79 | 63 | 4.0 | 4.0 | 0.00 | 0.00 | 0.00 | 77 | 1019.4 |
| 20260508230432 | 79 | 208 | 1.0 | 2.0 | 0.00 | 0.00 | 0.00 | 77 | 1019.5 |
| 20260508225929 | 79 | 186 | 2.0 | 3.0 | 0.00 | 0.00 | 0.00 | 76 | 1019.3 |
| 20260508225426 | 79 | 80 | 2.0 | 6.0 | 0.00 | 0.00 | 0.00 | 76 | 1019.3 |
| 20260508224924 | 79 | 163 | 2.0 | 7.0 | 0.00 | 0.00 | 0.00 | 76 | 1019.2 |
| 20260508224421 | 79 | 98 | 1.0 | 6.0 | 0.00 | 0.00 | 0.00 | 77 | 1019.2 |
| 20260508223919 | 79 | 132 | 2.0 | 6.0 | 0.00 | 0.00 | 0.00 | 77 | 1019.3 |
| 20260508223416 | 79 | 72 | 4.0 | 6.0 | 0.00 | 0.00 | 0.00 | 76 | 1019.2 |
| 20260508222913 | 79 | 115 | 3.0 | 4.0 | 0.00 | 0.00 | 0.00 | 76 | 1019.2 |
| 20260508222410 | 79 | 106 | 4.0 | 4.0 | 0.00 | 0.00 | 0.00 | 76 | 1019.1 |
| 20260508221907 | 80 | 89 | 4.0 | 8.0 | 0.00 | 0.00 | 0.00 | 76 | 1018.7 |
| 20260508221402 | 80 | 87 | 4.0 | 7.0 | 0.00 | 0.00 | 0.00 | 76 | 1019.1 |
| 20260508220859 | 80 | 119 | 2.0 | 6.0 | 0.00 | 0.00 | 0.00 | 75 | 1018.7 |
| 20260508220356 | 80 | 138 | 3.0 | 8.0 | 0.00 | 0.00 | 0.00 | 75 | 1018.8 |
| 20260508215852 | 80 | 110 | 6.0 | 8.0 | 0.00 | 0.00 | 0.00 | 75 | 1018.7 |
| 20260508215349 | 80 | 159 | 2.0 | 4.0 | 0.00 | 0.00 | 0.00 | 75 | 1018.8 |
| 20260508214846 | 80 | 116 | 3.0 | 4.0 | 0.00 | 0.00 | 0.00 | 74 | 1018.8 |
| 20260508214343 | 80 | 67 | 2.0 | 4.0 | 0.00 | 0.00 | 0.00 | 74 | 1018.8 |
| 20260508213839 | 80 | 146 | 4.0 | 7.0 | 0.00 | 0.00 | 0.00 | 73 | 1018.7 |
| 20260508213337 | 80 | 109 | 6.0 | 7.0 | 0.00 | 0.00 | 0.00 | 73 | 1018.7 |
| 20260508212832 | 80 | 192 | 4.0 | 8.0 | 0.00 | 0.00 | 0.00 | 73 | 1018.6 |
| 20260508212329 | 80 | 172 | 3.0 | 7.0 | 0.00 | 0.00 | 0.00 | 72 | 1018.5 |
| 20260508211825 | 81 | 175 | 7.0 | 9.0 | 0.00 | 0.00 | 0.00 | 71 | 1018.3 |
| 20260508211320 | 81 | 82 | 5.0 | 10.0 | 0.00 | 0.00 | 0.00 | 70 | 1018.5 |
| 20260508210819 | 82 | 136 | 6.0 | 9.0 | 0.00 | 0.00 | 0.00 | 70 | 1018.4 |
| 20260508210315 | 82 | 190 | 5.0 | 8.0 | 0.00 | 0.00 | 0.00 | 68 | 1018.3 |
| 20260508205812 | 82 | 83 | 6.0 | 13.0 | 0.00 | 0.00 | 0.00 | 69 | 1018.3 |
| 20260508205308 | 83 | 119 | 7.0 | 10.0 | 0.00 | 0.00 | 0.00 | 68 | 1018.4 |
| 20260508204805 | 83 | 130 | 6.0 | 9.0 | 0.00 | 0.00 | 0.00 | 67 | 1018.4 |
| 20260508204301 | 83 | 119 | 6.0 | 10.0 | 0.00 | 0.00 | 0.00 | 68 | 1018.3 |
| 20260508203758 | 84 | 148 | 10.0 | 11.0 | 0.00 | 0.00 | 0.00 | 66 | 1018.4 |
| 20260508203254 | 84 | 75 | 9.0 | 14.0 | 0.00 | 0.00 | 0.00 | 65 | 1018.3 |
| 20260508202749 | 83 | 147 | 9.0 | 11.0 | 0.00 | 0.00 | 0.00 | 67 | 1018.5 |
| 20260508202247 | 82 | 146 | 5.0 | 9.0 | 0.00 | 0.00 | 0.00 | 71 | 1018.4 |
| 20260508201744 | 81 | 146 | 4.0 | 8.0 | 0.00 | 0.00 | 0.00 | 71 | 1018.5 |
| 20260508201241 | 82 | 126 | 7.0 | 9.0 | 0.00 | 0.00 | 0.00 | 69 | 1018.4 |
| 20260508200737 | 82 | 63 | 6.0 | 7.0 | 0.00 | 0.00 | 0.00 | 68 | 1018.4 |
| 20260508200234 | 82 | 193 | 3.0 | 8.0 | 0.00 | 0.00 | 0.00 | 68 | 1018.3 |
| 20260508195730 | 83 | 64 | 6.0 | 10.0 | 0.00 | 0.00 | 0.00 | 66 | 1018.4 |
| 20260508195226 | 84 | 75 | 8.0 | 13.0 | 0.00 | 0.00 | 0.00 | 64 | 1018.4 |
| 20260508194723 | 84 | 102 | 8.0 | 13.0 | 0.00 | 0.00 | 0.00 | 58 | 1018.3 |
| 20260508194220 | 85 | 134 | 6.0 | 13.0 | 0.00 | 0.00 | 0.00 | 61 | 1018.5 |
| 20260508193717 | 85 | 92 | 9.0 | 14.0 | 0.00 | 0.00 | 0.00 | 61 | 1018.4 |
| 20260508193214 | 85 | 150 | 7.0 | 8.0 | 0.00 | 0.00 | 0.00 | 61 | 1018.3 |
| 20260508192710 | 85 | 112 | 10.0 | 14.0 | 0.00 | 0.00 | 0.00 | 61 | 1018.3 |
| 20260508192208 | 85 | 170 | 7.0 | 11.0 | 0.00 | 0.00 | 0.00 | 62 | 1018.3 |
| 20260508191705 | 85 | 133 | 9.0 | 17.0 | 0.00 | 0.00 | 0.00 | 62 | 1018.4 |
| 20260508191201 | 85 | 139 | 6.0 | 15.0 | 0.00 | 0.00 | 0.00 | 63 | 1018.5 |
| 20260508190659 | 86 | 113 | 11.0 | 15.0 | 0.00 | 0.00 | 0.00 | 62 | 1018.4 |
| 20260508190155 | 86 | 94 | 10.0 | 14.0 | 0.00 | 0.00 | 0.00 | 62 | 1018.5 |
| 20260508185652 | 85 | 132 | 8.0 | 13.0 | 0.00 | 0.00 | 0.00 | 62 | 1018.3 |
| 20260508185149 | 86 | 113 | 10.0 | 17.0 | 0.00 | 0.00 | 0.00 | 60 | 1018.5 |
| 20260508184646 | 85 | 87 | 10.0 | 15.0 | 0.00 | 0.00 | 0.00 | 63 | 1018.7 |
| 20260508184143 | 85 | 85 | 16.0 | 17.0 | 0.00 | 0.00 | 0.00 | 61 | 1018.5 |
| 20260508183640 | 85 | 138 | 9.0 | 13.0 | 0.00 | 0.00 | 0.00 | 63 | 1018.7 |
| 20260508183136 | 86 | 49 | 11.0 | 15.0 | 0.00 | 0.00 | 0.00 | 58 | 1018.7 |
| 20260508182632 | 86 | 77 | 7.0 | 15.0 | 0.00 | 0.00 | 0.00 | 61 | 1018.8 |
| 20260508182129 | 85 | 228 | 7.0 | 16.0 | 0.00 | 0.00 | 0.00 | 65 | 1018.7 |
| 20260508181624 | 86 | 98 | 11.0 | 14.0 | 0.00 | 0.00 | 0.00 | 63 | 1018.9 |
| 20260508181122 | 86 | 128 | 5.0 | 11.0 | 0.00 | 0.00 | 0.00 | 62 | 1018.8 |
| 20260508180619 | 87 | 76 | 12.0 | 17.0 | 0.00 | 0.00 | 0.00 | 59 | 1019.0 |
| 20260508180115 | 87 | 79 | 5.0 | 14.0 | 0.00 | 0.00 | 0.00 | 60 | 1019.0 |
| 20260508175612 | 87 | 72 | 8.0 | 14.0 | 0.00 | 0.00 | 0.00 | 59 | 1018.9 |
| 20260508175109 | 86 | 114 | 7.0 | 13.0 | 0.00 | 0.00 | 0.00 | 56 | 1019.2 |
| 20260508174606 | 87 | 145 | 9.0 | 14.0 | 0.00 | 0.00 | 0.00 | 58 | 1019.2 |
| 20260508174103 | 86 | 68 | 10.0 | 17.0 | 0.00 | 0.00 | 0.00 | 57 | 1019.1 |
| 20260508173600 | 86 | 86 | 10.0 | 15.0 | 0.00 | 0.00 | 0.00 | 62 | 1019.3 |
| 20260508173056 | 86 | 118 | 9.0 | 17.0 | 0.00 | 0.00 | 0.00 | 61 | 1019.5 |
| 20260508172554 | 86 | 110 | 11.0 | 18.0 | 0.00 | 0.00 | 0.00 | 59 | 1019.3 |
| 20260508172050 | 86 | 113 | 10.0 | 16.0 | 0.00 | 0.00 | 0.00 | 64 | 1019.5 |
| 20260508171546 | 87 | 94 | 6.0 | 14.0 | 0.00 | 0.00 | 0.00 | 63 | 1019.5 |
| 20260508171043 | 86 | 137 | 12.0 | 18.0 | 0.00 | 0.00 | 0.00 | 61 | 1019.6 |
| 20260508170540 | 86 | 76 | 15.0 | 21.0 | 0.00 | 0.00 | 0.00 | 60 | 1019.8 |
| 20260508170038 | 86 | 125 | 11.0 | 16.0 | 0.00 | 0.00 | 0.00 | 62 | 1019.7 |
| 20260508165535 | 87 | 130 | 13.0 | 16.0 | 0.00 | 0.00 | 0.00 | 61 | 1019.9 |
| 20260508165031 | 88 | 68 | 8.0 | 19.0 | 0.00 | 0.00 | 0.00 | 62 | 1019.8 |
| 20260508164528 | 87 | 112 | 7.0 | 14.0 | 0.00 | 0.00 | 0.00 | 62 | 1019.7 |
| 20260508164025 | 86 | 104 | 14.0 | 18.0 | 0.00 | 0.00 | 0.00 | 62 | 1020.0 |
| 20260508163522 | 86 | 99 | 16.0 | 21.0 | 0.00 | 0.00 | 0.00 | 62 | 1020.0 |
| 20260508163019 | 87 | 138 | 9.0 | 14.0 | 0.00 | 0.00 | 0.00 | 63 | 1020.0 |
| 20260508162516 | 87 | 87 | 10.0 | 21.0 | 0.00 | 0.00 | 0.00 | 62 | 1019.9 |
| 20260508162013 | 87 | 66 | 13.0 | 23.0 | 0.00 | 0.00 | 0.00 | 61 | 1020.2 |
| 20260508161510 | 86 | 138 | 11.0 | 15.0 | 0.00 | 0.00 | 0.00 | 61 | 1020.1 |
| 20260508161007 | 86 | 91 | 6.0 | 15.0 | 0.00 | 0.00 | 0.00 | 65 | 1020.2 |